Time,TemperatureF,DewpointF,PressureIn,WindDirection,WindDirectionDegrees,WindSpeedMPH,WindSpeedGustMPH,Humidity,HourlyPrecipIn,Conditions,Clouds,dailyrainin,SoftwareType,DateUTC
2013-08-12 00:00:00,46.4,43.9,30.15,West,270,0.0,-999.0,91,-99.99,,,0.00,Acu-Link.com,2013-08-12 06:00:00,
2013-08-12 00:15:00,46.0,43.8,30.14,West,270,0.0,-999.0,92,-99.99,,,0.00,Acu-Link.com,2013-08-12 06:15:00,
2013-08-12 00:30:00,45.7,43.5,30.14,SSW,202,0.0,-999.0,92,-99.99,,,0.00,Acu-Link.com,2013-08-12 06:30:00,
2013-08-12 00:46:00,44.8,43.2,30.13,WSW,247,0.0,-999.0,94,-99.99,,,0.00,Acu-Link.com,2013-08-12 06:46:00,
2013-08-12 01:01:00,44.4,42.5,30.13,West,270,0.0,-999.0,93,-99.99,,,0.00,Acu-Link.com,2013-08-12 07:01:00,
2013-08-12 01:16:00,44.1,43.6,30.11,WSW,247,0.0,-999.0,98,-99.99,,,0.00,Acu-Link.com,2013-08-12 07:16:00,
2013-08-12 01:31:00,44.8,43.2,30.11,NNE,22,0.0,-999.0,94,-99.99,,,0.00,Acu-Link.com,2013-08-12 07:31:00,
2013-08-12 01:47:00,43.9,43.4,30.11,WSW,247,0.0,-999.0,98,-99.99,,,0.00,Acu-Link.com,2013-08-12 07:47:00,
2013-08-12 02:02:00,44.2,43.7,30.11,WSW,247,0.0,-999.0,98,-99.99,,,0.00,Acu-Link.com,2013-08-12 08:02:00,
2013-08-12 02:18:00,44.2,43.7,30.10,SSW,202,0.0,-999.0,98,-99.99,,,0.00,Acu-Link.com,2013-08-12 08:18:00,
2013-08-12 02:33:00,43.9,42.8,30.10,South,180,0.0,-999.0,96,-99.99,,,0.00,Acu-Link.com,2013-08-12 08:33:00,
2013-08-12 02:48:00,43.9,42.0,30.10,WSW,247,0.0,-999.0,93,-99.99,,,0.00,Acu-Link.com,2013-08-12 08:48:00,
2013-08-12 03:03:00,43.2,41.6,30.10,West,270,0.0,-999.0,94,-99.99,,,0.00,Acu-Link.com,2013-08-12 09:03:00,
2013-08-12 03:18:00,42.8,42.3,30.10,South,180,0.0,-999.0,98,-99.99,,,0.00,Acu-Link.com,2013-08-12 09:18:00,
2013-08-12 03:34:00,42.4,41.9,30.10,South,180,0.0,-999.0,98,-99.99,,,0.00,Acu-Link.com,2013-08-12 09:34:00,
2013-08-12 03:49:00,42.1,41.6,30.10,West,270,0.0,-999.0,98,-99.99,,,0.00,Acu-Link.com,2013-08-12 09:49:00,
2013-08-12 04:04:00,42.3,41.8,30.10,WNW,292,0.0,-999.0,98,-99.99,,,0.00,Acu-Link.com,2013-08-12 10:04:00,
2013-08-12 04:19:00,41.7,41.2,30.09,West,270,0.0,-999.0,98,-99.99,,,0.00,Acu-Link.com,2013-08-12 10:19:00,
2013-08-12 04:34:00,41.5,41.0,30.08,WNW,292,0.0,-999.0,98,-99.99,,,0.00,Acu-Link.com,2013-08-12 10:34:00,
2013-08-12 04:50:00,41.0,40.5,30.08,NNW,337,0.0,-999.0,98,-99.99,,,0.00,Acu-Link.com,2013-08-12 10:50:00,
2013-08-12 05:05:00,40.6,40.1,30.09,WNW,292,0.0,-999.0,98,-99.99,,,0.00,Acu-Link.com,2013-08-12 11:05:00,
2013-08-12 05:21:00,40.8,40.3,30.09,West,270,0.0,-999.0,98,-99.99,,,0.00,Acu-Link.com,2013-08-12 11:21:00,
2013-08-12 05:36:00,41.2,40.7,30.08,SSW,202,0.0,-999.0,98,-99.99,,,0.00,Acu-Link.com,2013-08-12 11:36:00,
2013-08-12 05:51:00,40.6,40.1,30.08,SW,225,0.0,-999.0,98,-99.99,,,0.00,Acu-Link.com,2013-08-12 11:51:00,
2013-08-12 06:07:00,40.3,39.8,30.09,WNW,292,0.0,-999.0,98,-99.99,,,0.00,Acu-Link.com,2013-08-12 12:07:00,
2013-08-12 06:22:00,40.5,40.0,30.09,ESE,112,0.0,-999.0,98,-99.99,,,0.00,Acu-Link.com,2013-08-12 12:22:00,
2013-08-12 06:37:00,43.9,43.4,30.08,East,90,0.0,-999.0,98,-99.99,,,0.00,Acu-Link.com,2013-08-12 12:37:00,
2013-08-12 06:52:00,46.2,44.8,30.08,NNW,337,0.0,-999.0,95,-99.99,,,0.00,Acu-Link.com,2013-08-12 12:52:00,
2013-08-12 07:08:00,45.5,42.4,30.09,WNW,292,0.0,-999.0,89,-99.99,,,0.00,Acu-Link.com,2013-08-12 13:08:00,
2013-08-12 07:23:00,46.8,44.0,30.09,East,90,0.0,-999.0,90,-99.99,,,0.00,Acu-Link.com,2013-08-12 13:23:00,
2013-08-12 07:38:00,54.0,46.3,30.08,ENE,67,0.0,-999.0,75,-99.99,,,0.00,Acu-Link.com,2013-08-12 13:38:00,
2013-08-12 07:53:00,60.1,46.2,30.08,ESE,112,0.0,-999.0,60,-99.99,,,0.00,Acu-Link.com,2013-08-12 13:53:00,
2013-08-12 08:08:00,64.2,47.2,30.09,ENE,67,0.0,-999.0,54,-99.99,,,0.00,Acu-Link.com,2013-08-12 14:08:00,
2013-08-12 08:24:00,67.3,46.4,30.09,ESE,112,0.0,-999.0,47,-99.99,,,0.00,Acu-Link.com,2013-08-12 14:24:00,
2013-08-12 08:39:00,69.8,46.9,30.09,East,90,3.2,-999.0,44,-99.99,,,0.00,Acu-Link.com,2013-08-12 14:39:00,
2013-08-12 08:54:00,68.0,45.9,30.09,ENE,67,4.2,-999.0,45,-99.99,,,0.00,Acu-Link.com,2013-08-12 14:54:00,
2013-08-12 09:09:00,65.5,45.8,30.11,East,90,4.2,-999.0,49,-99.99,,,0.00,Acu-Link.com,2013-08-12 15:09:00,
2013-08-12 09:25:00,64.4,44.3,30.11,ENE,67,3.7,-999.0,48,-99.99,,,0.00,Acu-Link.com,2013-08-12 15:25:00,
2013-08-12 09:40:00,65.5,46.4,30.11,East,90,6.3,-999.0,50,-99.99,,,0.00,Acu-Link.com,2013-08-12 15:40:00,
2013-08-12 09:55:00,65.7,47.1,30.11,NNW,337,3.7,-999.0,51,-99.99,,,0.00,Acu-Link.com,2013-08-12 15:55:00,
2013-08-12 10:10:00,66.9,47.6,30.12,NNE,22,4.7,-999.0,50,-99.99,,,0.00,Acu-Link.com,2013-08-12 16:10:00,
2013-08-12 10:26:00,67.3,48.0,30.12,NNE,22,5.3,-999.0,50,-99.99,,,0.00,Acu-Link.com,2013-08-12 16:26:00,
2013-08-12 10:41:00,68.2,48.8,30.12,NNE,22,9.4,-999.0,50,-99.99,,,0.00,Acu-Link.com,2013-08-12 16:41:00,
2013-08-12 10:56:00,70.0,49.4,30.12,ESE,112,5.8,-999.0,48,-99.99,,,0.00,Acu-Link.com,2013-08-12 16:56:00,
2013-08-12 11:11:00,70.3,49.7,30.11,NNE,22,3.7,-999.0,48,-99.99,,,0.00,Acu-Link.com,2013-08-12 17:11:00,
2013-08-12 11:26:00,70.2,49.0,30.11,East,90,6.8,-999.0,47,-99.99,,,0.00,Acu-Link.com,2013-08-12 17:26:00,
2013-08-12 11:41:00,66.7,49.5,30.11,ENE,67,7.3,-999.0,54,-99.99,,,0.00,Acu-Link.com,2013-08-12 17:41:00,
2013-08-12 11:57:00,69.6,50.1,30.11,SSE,157,6.3,-999.0,50,-99.99,,,0.00,Acu-Link.com,2013-08-12 17:57:00,
2013-08-12 12:12:00,67.3,49.1,30.11,SE,135,4.7,-999.0,52,-99.99,,,0.00,Acu-Link.com,2013-08-12 18:12:00,
2013-08-12 12:27:00,65.5,45.8,30.11,North,0,5.3,-999.0,49,-99.99,,,0.00,Acu-Link.com,2013-08-12 18:27:00,
2013-08-12 12:42:00,63.9,48.4,30.12,ENE,67,2.7,-999.0,57,-99.99,,,0.00,Acu-Link.com,2013-08-12 18:42:00,
2013-08-12 12:57:00,61.7,51.0,30.13,WSW,247,2.2,-999.0,68,-99.99,,,0.00,Acu-Link.com,2013-08-12 18:57:00,
2013-08-12 13:13:00,60.6,51.1,30.15,SW,225,1.1,-999.0,71,-99.99,,,0.00,Acu-Link.com,2013-08-12 19:13:00,
2013-08-12 13:28:00,57.6,50.4,30.15,NE,45,3.7,-999.0,77,-99.99,,,0.00,Acu-Link.com,2013-08-12 19:28:00,
2013-08-12 13:43:00,57.7,46.0,30.16,West,270,2.7,-999.0,65,-99.99,,,0.00,Acu-Link.com,2013-08-12 19:43:00,
2013-08-12 13:59:00,59.2,45.8,30.15,South,180,6.8,-999.0,61,-99.99,,,0.00,Acu-Link.com,2013-08-12 19:59:00,
2013-08-12 14:14:00,64.6,44.5,30.14,NE,45,3.7,-999.0,48,-99.99,,,0.00,Acu-Link.com,2013-08-12 20:14:00,
2013-08-12 14:29:00,64.8,43.0,30.14,North,0,2.2,-999.0,45,-99.99,,,0.00,Acu-Link.com,2013-08-12 20:29:00,
2013-08-12 14:44:00,66.4,45.6,30.13,East,90,10.4,-999.0,47,-99.99,,,0.00,Acu-Link.com,2013-08-12 20:44:00,
2013-08-12 14:59:00,64.6,43.9,30.12,WNW,292,1.7,-999.0,47,-99.99,,,0.00,Acu-Link.com,2013-08-12 20:59:00,
2013-08-12 15:14:00,65.8,44.4,30.11,ENE,67,4.2,-999.0,46,-99.99,,,0.00,Acu-Link.com,2013-08-12 21:14:00,
2013-08-12 15:30:00,65.3,43.4,30.10,ESE,112,2.2,-999.0,45,-99.99,,,0.00,Acu-Link.com,2013-08-12 21:30:00,
2013-08-12 15:45:00,64.8,42.4,30.10,NNW,337,2.2,-999.0,44,-99.99,,,0.00,Acu-Link.com,2013-08-12 21:45:00,
2013-08-12 16:16:00,67.1,41.3,30.09,NW,315,3.7,-999.0,39,-99.99,,,0.00,Acu-Link.com,2013-08-12 22:16:00,
2013-08-12 16:31:00,68.5,42.6,30.08,NE,45,4.2,-999.0,39,-99.99,,,0.00,Acu-Link.com,2013-08-12 22:31:00,
2013-08-12 16:46:00,68.4,43.1,30.08,SSE,157,2.2,-999.0,40,-99.99,,,0.00,Acu-Link.com,2013-08-12 22:46:00,
2013-08-12 17:01:00,69.1,42.4,30.09,ENE,67,4.2,-999.0,38,-99.99,,,0.00,Acu-Link.com,2013-08-12 23:01:00,
2013-08-12 17:16:00,65.1,42.0,30.09,NNW,337,4.2,-999.0,43,-99.99,,,0.00,Acu-Link.com,2013-08-12 23:16:00,
2013-08-12 17:32:00,62.1,44.3,30.09,SSW,202,7.8,-999.0,52,-99.99,,,0.00,Acu-Link.com,2013-08-12 23:32:00,
2013-08-12 17:47:00,58.8,44.5,30.10,NW,315,6.8,-999.0,59,-99.99,,,0.00,Acu-Link.com,2013-08-12 23:47:00,
2013-08-12 18:02:00,58.8,45.4,30.10,NW,315,5.3,-999.0,61,-99.99,,,0.00,Acu-Link.com,2013-08-13 00:02:00,
2013-08-12 18:17:00,57.7,44.8,30.11,ESE,112,4.7,-999.0,62,-99.99,,,0.00,Acu-Link.com,2013-08-13 00:17:00,
2013-08-12 18:32:00,56.8,45.2,30.11,NNW,337,0.0,-999.0,65,-99.99,,,0.00,Acu-Link.com,2013-08-13 00:32:00,
2013-08-12 18:48:00,56.1,45.7,30.10,ESE,112,2.2,-999.0,68,-99.99,,,0.00,Acu-Link.com,2013-08-13 00:48:00,
2013-08-12 19:03:00,55.8,43.8,30.11,ESE,112,3.2,-999.0,64,-99.99,,,0.00,Acu-Link.com,2013-08-13 01:03:00,
2013-08-12 19:18:00,55.8,44.6,30.12,West,270,0.0,-999.0,66,-99.99,,,0.00,Acu-Link.com,2013-08-13 01:18:00,
2013-08-12 19:33:00,55.6,45.6,30.11,West,270,0.0,-999.0,69,-99.99,,,0.00,Acu-Link.com,2013-08-13 01:33:00,
2013-08-12 19:48:00,55.2,45.6,30.13,NW,315,0.0,-999.0,70,-99.99,,,0.00,Acu-Link.com,2013-08-13 01:48:00,
2013-08-12 20:04:00,55.0,45.4,30.13,West,270,0.0,-999.0,70,-99.99,,,0.00,Acu-Link.com,2013-08-13 02:04:00,
2013-08-12 20:19:00,54.3,46.2,30.13,West,270,0.0,-999.0,74,-99.99,,,0.00,Acu-Link.com,2013-08-13 02:19:00,
2013-08-12 20:34:00,54.0,47.0,30.15,East,90,2.2,-999.0,77,-99.99,,,0.00,Acu-Link.com,2013-08-13 02:34:00,
2013-08-12 20:50:00,52.5,48.7,30.15,East,90,9.4,-999.0,87,-99.99,,,0.00,Acu-Link.com,2013-08-13 02:50:00,
2013-08-12 21:05:00,50.7,48.2,30.17,ENE,67,5.3,-999.0,91,-99.99,,,0.00,Acu-Link.com,2013-08-13 03:05:00,
2013-08-12 21:20:00,49.8,49.3,30.19,East,90,6.8,-999.0,98,-99.99,,,0.00,Acu-Link.com,2013-08-13 03:20:00,
2013-08-12 21:35:00,49.1,48.6,30.18,East,90,3.2,-999.0,98,-99.99,,,0.00,Acu-Link.com,2013-08-13 03:35:00,
2013-08-12 22:06:00,49.1,48.6,30.19,North,0,1.1,-999.0,98,-99.99,,,0.04,Acu-Link.com,2013-08-13 04:06:00,
2013-08-12 22:21:00,48.9,48.4,30.19,North,0,0.0,-999.0,98,-99.99,,,0.21,Acu-Link.com,2013-08-13 04:21:00,
2013-08-12 22:36:00,48.7,48.2,30.20,WNW,292,0.0,-999.0,98,-99.99,,,0.32,Acu-Link.com,2013-08-13 04:36:00,
2013-08-12 22:52:00,47.8,47.3,30.20,WSW,247,2.2,-999.0,98,-99.99,,,0.52,Acu-Link.com,2013-08-13 04:52:00,
2013-08-12 23:07:00,47.7,47.2,30.19,ENE,67,2.7,-999.0,98,-99.99,,,0.65,Acu-Link.com,2013-08-13 05:07:00,
2013-08-12 23:22:00,47.3,46.8,30.19,NE,45,2.7,-999.0,98,-99.99,,,0.78,Acu-Link.com,2013-08-13 05:22:00,
2013-08-12 23:37:00,47.7,47.2,30.18,West,270,0.0,-999.0,98,-99.99,,,0.79,Acu-Link.com,2013-08-13 05:37:00,
2013-08-12 23:52:00,47.7,47.2,30.18,SSW,202,0.0,-999.0,98,-99.99,,,0.79,Acu-Link.com,2013-08-13 05:52:00,